Temp
61 61 61 62 61 62 62 62 61 61 61 61 61 61 61 61 62 58 50 58 60 65 62 55 54 52 51 46 47 45 31 25 31 33 36 43 41 48 49 46 48 51 49 52 56
61 61 61 61 61 61 61 61 61 61 61 61 61 61 61 60 55 50 61 66 65 65 54 49 47 49 43 44 44 39 28 32 39 37 37 40 39 41 42 42 43 47 52 54 53
60 60 60 61 61 61 61 61 61 61 61 61 61 60 60 57 50 49 64 66 66 62 55 52 51 48 41 43 42 39 32 39 43 43 43 41 40 41 38 36 40 42 46 50 51
60 60 60 60 60 61 61 60 60 60 60 61 60 60 60 53 38 54 64 65 65 59 55 51 47 40 37 36 42 34 41 41 42 44 42 39 42 39 40 40 46 46 47 47 48
59 59 59 59 60 60 60 60 60 60 60 60 60 60 54 46 46 60 63 61 58 55 50 47 42 40 35 38 39 35 38 42 43 42 42 44 39 39 39 45 46 47 49 47 48
59 58 58 58 59 60 60 60 60 60 60 60 60 60 49 40 57 59 57 56 55 51 48 46 43 44 39 38 35 39 39 40 42 41 41 39 39 38 42 44 44 44 43 46 46
58 58 58 58 59 59 59 59 59 59 60 60 60 56 49 47 56 57 57 53 53 50 46 48 47 42 41 36 42 40 32 36 37 39 41 43 34 35 42 45 40 37 38 41 42
58 57 57 58 58 58 59 59 59 59 60 60 60 51 42 57 54 56 55 51 53 53 51 50 50 44 40 42 38 32 30 25 36 39 40 40 24 32 39 41 34 33 32 35 37
57 57 57 58 58 58 58 59 59 59 60 60 51 47 42 59 51 53 52 48 49 51 50 56 47 39 39 30 25 29 22 25 28 38 36 35 28 32 37 35 29 29 30 32 34
57 57 57 57 57 58 58 59 58 57 57 57 56 43 49 46 49 52 52 50 47 45 44 42 37 32 30 26 14 22 22 25 23 31 29 28 27 29 32 32 28 28 28 29 30
57 57 57 57 58 58 52 49 46 46 46 41 42 44 47 51 52 50 51 47 45 41 31 36 30 25 28 30 31 27 24 21 26 32 27 27 25 25 29 29 26 27 27 27 29
57 57 57 57 57 57 49 42 40 41 38 46 47 47 50 48 42 46 50 40 37 30 33 30 26 32 36 34 31 27 23 21 27 32 29 25 22 24 29 28 27 25 26 27 29
57 56 56 57 57 49 44 42 48 46 37 43 46 45 46 46 40 42 45 39 33 31 29 26 32 38 34 31 27 25 22 22 21 28 28 24 19 21 27 29 28 28 28 28 27
56 56 56 56 50 45 41 48 48 46 28 38 41 45 47 44 38 48 46 40 34 29 30 28 35 33 31 28 27 10 29 26 23 14 13 22 7 21 23 24 24 24 23 24 26
56 56 55 56 45 43 46 48 47 43 18 40 41 51 47 40 39 41 45 40 31 31 28 30 30 29 20 29 29 18 28 25 24 13 11 21 11 18 21 17 17 21 21 23 25
56 55 55 50 46 46 48 46 43 28 22 34 40 38 37 38 38 41 38 40 38 32 31 30 36 31 29 32 30 30 23 27 25 14 0 15 12 11 11 13 15 19 20 21 24
56 55 52 51 44 47 46 42 29 22 34 30 32 35 33 32 33 34 31 27 24 16 17 26 29 32 32 23 30 24 16 6 6 2 1 21 14 8 14 16 14 14 16 20 22
55 54 51 50 48 46 42 34 23 23 23 34 34 33 29 31 31 30 27 23 28 24 14 9 16 25 29 20 14 21 16 8 2 1 6 23 7 11 16 17 16 16 17 20 21
55 48 47 46 48 45 39 25 28 27 34 32 31 25 24 29 28 27 24 23 26 24 13 11 14 30 28 28 24 21 16 23 9 11 5 11 17 17 22 16 13 11 17 17 19
48 46 45 47 46 43 33 34 26 34 34 31 26 25 17 19 23 23 24 28 28 30 28 19 14 29 28 27 28 24 26 14 14 4 3 12 9 4 7 7 10 10 13 15 19
46 39 44 46 44 38 30 28 28 35 36 29 23 23 24 20 23 20 25 29 30 28 29 23 16 22 26 11 10 17 16 18 16 14 8 6 11 5 4 6 7 11 14 15 17
43 34 44 44 34 30 28 28 37 32 35 33 31 27 22 19 19 24 25 28 32 29 23 26 15 13 12 16 23 22 14 15 8 9 14 12 11 16 10 9 12 13 15 16 19
35 38 44 41 30 28 29 30 33 31 32 32 30 30 22 18 18 21 26 32 33 29 22 22 20 8 14 18 25 14 19 18 17 14 6 6 7 16 14 12 13 11 14 15 18
38 32 34 37 35 33 28 29 26 33 32 34 31 31 20 15 22 15 26 32 33 32 35 30 18 11 11 13 7 11 14 17 15 1 3 7 6 12 12 8 10 11 13 14 16
37 33 32 28 32 33 33 31 27 25 31 33 29 25 23 16 12 13 24 28 32 35 28 24 12 7 13 5 10 10 9 10 5 6 7 10 7 7 9 8 10 11 13 13 14
34 32 29 30 33 33 34 30 32 31 30 27 23 24 22 20 24 20 24 27 26 28 27 24 13 16 12 8 9 9 14 9 10 3 3 2 7 8 9 9 9 10 11 11 13
39 39 38 33 31 31 32 36 34 33 32 33 30 26 20 26 28 28 29 29 28 20 22 18 13 8 6 12 15 12 9 3 2 -1 6 5 13 6 5 2 3 8 10 11 12
MSLP
1021.90 1021.57 1021.36 1020.92 1020.45 1020.15 1019.58 1019.19 1018.67 1018.65 1018.25 1017.90 1017.67 1017.50 1017.31 1017.11 1016.95 1017.22 1017.58 1017.95 1017.53 1017.18 1017.02 1016.94 1016.41 1016.07 1015.82 1015.87 1015.95 1016.29 1017.17 1017.15 1016.13 1015.47 1014.89 1014.56 1014.26 1013.18 1012.84 1012.41 1011.80 1011.35 1011.03 1011.41 1011.40
1022.04 1021.64 1021.27 1020.99 1020.56 1020.16 1019.60 1019.13 1018.70 1018.57 1018.01 1017.77 1017.68 1017.55 1017.38 1017.33 1017.35 1017.74 1017.91 1017.57 1017.33 1017.16 1017.21 1017.04 1016.79 1016.54 1016.43 1016.38 1016.22 1016.57 1017.34 1016.86 1015.64 1015.24 1015.11 1014.91 1014.78 1014.41 1014.01 1013.43 1012.79 1011.91 1011.00 1011.10 1011.21
1022.12 1021.52 1021.25 1021.05 1020.55 1020.23 1019.64 1019.18 1018.72 1018.46 1017.89 1017.77 1017.78 1017.54 1017.51 1017.49 1017.61 1018.01 1017.70 1017.39 1017.25 1016.98 1016.87 1016.93 1017.06 1017.02 1016.91 1016.68 1016.73 1016.86 1016.77 1016.32 1015.65 1015.23 1015.25 1015.04 1014.78 1014.61 1014.28 1013.83 1013.49 1013.28 1012.77 1011.76 1011.07
1021.85 1021.77 1021.29 1020.89 1020.56 1020.20 1019.58 1019.21 1018.74 1018.35 1017.95 1017.85 1017.81 1017.51 1017.46 1017.58 1018.26 1017.80 1017.60 1017.36 1017.00 1016.71 1016.74 1017.08 1017.52 1017.55 1017.56 1017.49 1017.45 1017.51 1016.61 1016.39 1015.90 1015.50 1015.38 1015.30 1014.92 1014.52 1014.26 1013.82 1013.28 1012.85 1012.42 1012.28 1012.02
1021.91 1021.78 1021.22 1020.88 1020.48 1020.00 1019.54 1019.14 1018.77 1018.36 1018.12 1017.88 1017.80 1017.58 1017.52 1017.83 1018.14 1017.63 1017.63 1017.38 1016.98 1016.86 1017.15 1017.60 1017.78 1017.96 1018.10 1018.20 1017.92 1017.42 1016.98 1016.65 1016.07 1015.74 1015.43 1014.99 1014.84 1014.59 1014.12 1013.21 1013.02 1012.47 1012.06 1011.77 1011.53
1021.95 1021.63 1021.17 1020.84 1020.37 1019.84 1019.50 1019.07 1018.78 1018.44 1018.23 1017.90 1017.77 1017.68 1017.65 1018.03 1017.76 1017.77 1017.63 1017.25 1016.90 1017.06 1017.36 1017.51 1017.65 1018.08 1018.51 1018.35 1018.36 1017.72 1017.39 1016.76 1016.07 1015.84 1015.46 1015.18 1014.71 1014.68 1014.02 1013.57 1013.53 1013.44 1013.02 1012.46 1012.33
1021.83 1021.55 1021.19 1020.70 1020.18 1019.71 1019.41 1019.03 1018.80 1018.51 1018.25 1017.95 1017.79 1017.86 1017.90 1018.18 1017.77 1017.77 1017.46 1017.25 1016.93 1017.37 1017.31 1017.43 1017.47 1017.96 1018.91 1018.67 1018.04 1017.73 1017.54 1016.85 1016.10 1015.92 1015.59 1015.47 1015.42 1015.42 1014.98 1014.50 1014.94 1014.99 1014.40 1013.95 1013.55
1021.83 1021.46 1021.16 1020.50 1019.97 1019.53 1019.24 1018.93 1018.71 1018.47 1018.18 1018.01 1017.84 1017.90 1018.00 1017.72 1017.72 1017.56 1017.38 1017.15 1017.31 1017.21 1017.29 1017.25 1017.49 1018.04 1018.74 1018.55 1018.14 1018.09 1018.03 1017.63 1016.60 1016.39 1015.88 1016.12 1016.31 1016.73 1016.26 1015.50 1016.27 1016.31 1016.06 1015.49 1014.92
1021.77 1021.37 1021.03 1020.44 1019.78 1019.30 1018.98 1018.56 1018.37 1018.27 1018.08 1018.04 1017.97 1017.89 1018.09 1017.71 1017.95 1017.84 1017.74 1017.84 1017.64 1017.47 1017.30 1017.18 1017.48 1018.12 1018.88 1019.29 1019.17 1018.61 1018.75 1018.18 1017.20 1017.02 1016.63 1016.93 1016.97 1017.44 1017.46 1017.39 1017.55 1017.62 1017.52 1016.99 1015.76
1021.70 1021.42 1020.87 1020.33 1019.73 1019.12 1018.60 1018.24 1018.15 1018.10 1017.99 1018.15 1018.07 1018.48 1018.20 1018.44 1018.31 1017.97 1017.61 1017.70 1017.93 1017.66 1017.78 1017.79 1017.93 1018.81 1019.74 1020.09 1020.46 1019.64 1019.15 1018.48 1018.12 1017.41 1018.02 1017.44 1017.87 1018.33 1018.81 1018.85 1018.75 1018.54 1018.37 1017.81 1016.95
1021.47 1021.34 1020.90 1020.27 1019.74 1019.11 1018.63 1018.62 1019.16 1019.06 1019.00 1019.15 1019.00 1018.81 1018.87 1018.58 1018.12 1018.00 1017.73 1018.04 1018.34 1018.37 1018.89 1018.39 1018.88 1019.91 1020.15 1020.13 1020.44 1020.19 1019.75 1019.19 1018.35 1018.16 1018.35 1018.19 1018.79 1019.34 1019.57 1019.53 1019.12 1019.06 1018.88 1018.37 1017.56
1021.29 1021.24 1020.83 1020.18 1019.75 1019.34 1019.38 1020.34 1021.08 1021.27 1020.51 1019.41 1019.03 1018.98 1018.87 1018.83 1018.65 1018.34 1018.23 1019.07 1019.38 1019.37 1019.30 1019.18 1019.38 1019.65 1019.77 1019.94 1020.05 1019.93 1019.62 1019.24 1018.44 1018.18 1018.22 1018.72 1019.76 1020.17 1019.85 1020.12 1020.24 1020.23 1019.85 1019.42 1018.29
1021.10 1021.04 1020.64 1020.07 1019.71 1020.06 1020.74 1021.27 1021.24 1021.16 1020.84 1019.62 1019.10 1018.97 1018.89 1018.98 1018.87 1018.79 1018.93 1019.60 1019.88 1020.02 1020.01 1020.07 1019.64 1019.60 1019.66 1019.79 1019.76 1020.01 1019.62 1019.51 1019.71 1018.63 1018.49 1019.26 1020.03 1020.33 1020.38 1020.69 1020.90 1020.98 1020.87 1019.97 1019.23
1020.84 1020.87 1020.47 1019.89 1020.16 1020.82 1021.19 1021.26 1021.13 1021.24 1021.30 1020.00 1019.11 1018.85 1018.90 1018.92 1019.12 1019.02 1019.13 1019.81 1020.13 1020.56 1020.41 1020.23 1019.85 1019.97 1019.87 1020.21 1020.38 1020.08 1019.85 1019.72 1019.69 1019.75 1018.99 1019.27 1020.27 1020.35 1020.69 1020.98 1021.51 1021.41 1021.04 1020.62 1019.76
1020.76 1020.64 1020.53 1019.86 1020.72 1021.23 1021.54 1021.14 1021.13 1021.36 1021.23 1020.09 1019.04 1018.52 1018.92 1019.47 1019.77 1019.46 1019.68 1019.89 1020.58 1020.88 1021.10 1020.57 1020.39 1020.17 1020.53 1020.25 1020.45 1020.49 1020.01 1019.95 1020.06 1020.30 1020.12 1019.57 1020.44 1020.82 1021.30 1021.67 1022.13 1022.35 1022.19 1021.58 1020.76
1020.67 1020.52 1020.38 1020.38 1020.90 1021.32 1021.24 1021.18 1021.34 1021.87 1021.06 1020.00 1019.51 1019.40 1019.84 1020.05 1020.24 1020.21 1020.51 1020.75 1020.97 1021.29 1021.29 1021.06 1020.71 1020.75 1021.03 1020.31 1020.73 1020.96 1020.16 1020.05 1020.57 1020.95 1021.57 1021.15 1021.18 1022.17 1023.07 1024.15 1023.98 1023.71 1023.44 1022.60 1021.26
1020.52 1020.24 1020.29 1020.37 1021.03 1021.10 1021.25 1021.45 1022.12 1021.73 1021.32 1020.81 1020.52 1020.66 1021.14 1021.19 1021.08 1021.40 1022.06 1022.48 1022.76 1022.67 1022.66 1022.25 1021.44 1021.50 1021.57 1021.30 1021.01 1021.23 1021.13 1021.79 1022.00 1022.40 1022.25 1021.50 1022.05 1023.22 1024.32 1025.15 1025.76 1025.42 1024.64 1023.58 1022.31
1020.18 1020.20 1020.21 1020.41 1020.81 1021.07 1021.45 1021.65 1022.46 1021.85 1021.63 1021.25 1021.31 1021.58 1022.05 1022.10 1022.12 1022.43 1022.80 1023.54 1023.73 1024.09 1024.84 1024.69 1022.58 1022.24 1022.38 1023.00 1023.13 1022.97 1023.39 1023.84 1024.11 1023.79 1022.77 1021.63 1022.81 1023.47 1024.77 1025.60 1026.30 1026.53 1025.59 1024.38 1023.01
1019.98 1020.29 1020.41 1020.72 1020.84 1021.17 1021.53 1021.92 1021.64 1021.56 1021.51 1021.80 1022.17 1022.79 1023.20 1023.06 1023.25 1023.26 1023.46 1023.82 1024.07 1024.38 1025.57 1025.78 1024.07 1022.79 1022.98 1022.97 1023.41 1023.39 1023.71 1024.05 1024.22 1023.84 1024.01 1022.82 1023.17 1023.97 1024.56 1025.72 1026.64 1026.46 1025.64 1024.83 1023.90
1019.87 1020.15 1020.57 1020.76 1020.91 1021.31 1021.61 1022.03 1021.91 1021.77 1022.01 1022.36 1023.04 1023.83 1024.60 1024.27 1024.05 1024.11 1023.74 1023.80 1023.88 1024.37 1024.87 1026.21 1025.57 1023.07 1023.69 1023.59 1023.94 1024.27 1024.75 1025.01 1024.76 1024.51 1024.11 1023.53 1024.51 1025.71 1026.64 1027.07 1027.48 1026.75 1025.95 1025.40 1024.57
1019.60 1020.16 1020.83 1020.81 1021.15 1021.42 1022.16 1022.21 1022.06 1022.05 1022.22 1022.84 1023.23 1024.09 1025.00 1025.29 1024.89 1024.78 1023.93 1023.89 1023.67 1024.30 1024.69 1025.98 1026.94 1024.04 1024.32 1024.97 1025.04 1025.26 1025.34 1025.81 1025.43 1025.04 1025.07 1025.29 1025.01 1026.67 1028.22 1028.73 1028.65 1027.59 1027.00 1026.39 1025.35
1019.53 1020.71 1021.01 1021.09 1021.77 1022.11 1022.43 1022.29 1022.06 1022.21 1022.41 1022.86 1023.26 1024.13 1025.08 1025.84 1025.59 1025.15 1024.21 1023.59 1023.59 1023.99 1024.71 1025.65 1026.85 1025.55 1025.64 1025.28 1025.14 1025.88 1026.15 1027.13 1026.59 1026.18 1025.81 1026.47 1026.07 1027.06 1028.31 1028.86 1028.82 1028.15 1027.56 1026.98 1026.14
1019.59 1020.56 1021.12 1021.20 1021.64 1022.09 1022.53 1022.47 1022.23 1022.34 1022.49 1023.04 1023.56 1024.16 1025.32 1026.23 1026.18 1025.46 1024.41 1023.81 1023.80 1024.01 1024.53 1025.59 1026.72 1026.87 1026.45 1026.83 1025.41 1026.34 1026.51 1027.65 1027.45 1027.35 1027.04 1027.68 1027.31 1027.19 1027.54 1028.34 1029.05 1028.96 1028.10 1027.47 1026.79
1019.61 1020.96 1021.44 1021.35 1021.27 1021.37 1022.58 1022.25 1022.14 1022.05 1022.31 1022.80 1023.64 1024.38 1025.66 1026.47 1026.45 1025.87 1024.71 1023.95 1023.96 1024.08 1024.45 1025.20 1026.91 1027.50 1027.62 1028.37 1027.75 1027.24 1027.23 1027.97 1028.52 1028.35 1028.43 1028.17 1028.42 1027.96 1027.89 1029.04 1029.21 1029.26 1028.98 1028.21 1027.48
1019.33 1020.46 1020.90 1021.34 1021.33 1021.30 1021.91 1021.62 1021.71 1021.93 1022.25 1022.73 1023.60 1024.14 1025.09 1026.53 1026.62 1025.98 1024.83 1024.05 1024.27 1024.41 1024.87 1025.55 1027.27 1027.67 1026.66 1028.60 1028.25 1027.89 1027.82 1028.57 1029.85 1029.81 1029.79 1028.85 1029.37 1029.36 1029.93 1029.66 1030.05 1030.23 1029.82 1028.99 1028.15
1019.12 1020.14 1020.86 1020.96 1020.75 1021.16 1021.44 1020.90 1020.70 1021.17 1021.73 1022.52 1023.37 1023.42 1024.40 1025.18 1024.87 1025.03 1024.59 1024.09 1024.49 1024.90 1025.38 1026.15 1027.20 1028.07 1027.61 1028.06 1028.64 1028.00 1027.76 1029.16 1029.49 1030.57 1030.40 1030.08 1029.97 1029.79 1030.48 1030.82 1030.57 1030.26 1030.10 1029.79 1028.96
1018.58 1019.12 1019.52 1020.60 1020.80 1020.97 1020.16 1019.40 1019.59 1020.27 1021.09 1021.38 1022.17 1023.16 1024.07 1023.82 1024.16 1024.18 1024.21 1024.22 1024.65 1025.34 1025.86 1026.21 1027.57 1028.56 1028.11 1026.68 1028.04 1028.31 1027.53 1028.32 1029.65 1030.02 1030.87 1030.27 1030.08 1030.26 1030.65 1031.24 1031.23 1030.99 1030.50 1030.00 1029.62
Wind_Speed
13 13 14 15 16 17 17 17 15 15 14 14 11 9 8 9 6 5 7 6 10 14 13 8 6 7 4 1 3 3 2 3 5 4 3 4 6 8 7 4 7 4 2 5 3
13 13 15 16 17 17 18 17 16 16 15 11 9 7 7 6 4 7 3 13 13 11 5 7 9 10 5 3 3 3 4 7 6 2 4 3 2 5 6 9 5 8 14 8 3
12 14 15 17 17 18 19 17 17 16 11 9 7 6 6 3 3 2 6 13 11 9 3 2 3 3 4 4 4 4 5 4 7 5 5 5 5 3 3 4 1 8 11 13 11
12 14 15 17 18 19 19 18 18 11 8 7 7 7 5 0 1 3 7 11 11 6 4 5 6 4 3 4 4 6 6 5 6 7 7 8 5 7 7 8 8 12 10 6 8
12 13 15 17 18 19 20 17 15 9 7 8 7 7 1 5 1 4 7 9 7 5 4 3 4 4 4 4 7 4 4 8 10 8 10 12 9 10 10 14 10 11 9 10 9
11 13 14 16 18 19 20 16 12 8 7 7 7 6 1 4 2 5 7 5 5 5 2 1 1 2 4 4 2 5 10 14 12 12 10 8 11 4 10 7 9 14 16 14 12
11 13 14 16 18 19 19 15 11 9 8 7 7 3 5 5 1 4 6 5 4 2 1 2 3 3 4 6 4 7 9 8 5 2 6 12 7 9 14 15 12 13 14 15 17
11 12 14 15 18 19 17 15 11 9 8 6 6 1 1 1 2 6 6 8 5 2 2 1 3 2 1 5 6 5 2 4 4 12 3 9 7 10 18 12 14 15 15 15 15
10 12 14 16 18 19 17 16 9 8 7 7 2 2 2 2 6 6 2 5 7 2 1 1 3 1 4 5 5 2 7 16 10 11 9 5 11 7 13 14 13 13 14 15 17
9 12 14 16 17 19 18 10 2 5 2 2 1 3 3 5 5 5 4 2 3 3 2 2 3 4 4 5 7 16 13 9 17 10 11 8 10 12 14 13 11 12 13 14 16
8 12 14 15 18 18 9 4 5 4 8 2 1 1 5 8 2 6 6 7 4 7 4 4 5 2 5 3 6 10 13 15 14 7 15 4 6 10 9 14 15 16 16 17 18
9 12 14 15 17 12 4 6 1 2 1 1 2 3 3 2 3 6 7 6 5 4 6 6 0 2 4 5 9 12 14 7 10 12 7 8 10 9 10 14 12 14 16 16 19
8 10 13 15 8 6 4 2 2 2 2 2 2 2 4 1 2 6 6 2 3 5 2 3 2 5 6 11 17 14 4 10 11 8 3 8 2 5 10 9 15 15 15 16 18
6 9 12 17 6 2 3 4 2 1 5 5 3 2 2 1 1 2 4 1 4 3 4 3 4 5 8 7 9 5 3 17 16 2 4 2 4 5 12 9 17 18 18 18 20
5 6 9 6 2 3 2 2 2 3 5 2 4 0 5 4 3 4 3 6 1 5 5 2 5 6 3 11 5 9 19 12 5 3 3 5 3 2 9 12 21 19 21 20 19
5 3 6 3 2 1 1 2 2 8 6 1 3 6 4 4 5 6 7 6 1 3 2 4 6 2 3 13 1 13 5 2 2 3 5 8 3 3 6 10 16 18 19 21 21
5 2 1 2 0 2 2 2 6 6 4 4 2 4 1 5 5 5 4 8 5 7 8 8 3 2 3 6 1 9 6 5 6 7 5 4 4 4 5 7 9 16 18 18 18
4 2 1 2 3 4 2 5 4 3 5 0 2 2 2 5 2 6 3 5 4 3 3 4 9 4 6 5 4 5 3 4 4 3 6 5 4 5 4 3 9 12 13 17 17
2 1 2 2 4 2 3 4 8 6 3 4 2 5 5 3 2 5 3 0 0 1 5 4 8 2 4 1 3 6 3 1 2 3 3 3 1 4 12 19 15 15 17 17 17
3 1 2 2 3 1 5 6 3 0 4 3 5 3 2 4 4 4 1 1 1 1 4 3 8 3 4 1 4 4 4 1 1 4 4 3 4 5 14 19 16 17 17 17 16
2 3 1 3 2 3 3 5 3 1 3 3 5 4 4 3 2 2 3 1 1 1 5 5 3 4 4 2 5 3 4 3 3 2 2 4 4 4 5 8 12 13 14 14 15
3 1 0 2 2 1 3 4 3 3 1 1 3 3 6 3 1 3 3 2 3 3 4 4 3 8 5 6 5 4 2 1 1 4 2 2 5 1 2 5 8 13 14 13 13
4 3 1 2 2 2 2 3 2 4 4 4 3 2 2 5 1 2 2 3 4 1 4 3 1 7 4 4 2 4 1 2 4 1 3 2 4 4 7 9 9 10 11 12 12
4 1 2 1 1 5 4 4 3 1 3 3 3 4 4 1 2 3 3 1 4 2 6 5 2 6 6 6 3 6 4 4 2 1 3 4 8 7 15 10 11 11 11 11 10
3 4 2 3 3 4 4 4 4 4 2 4 1 5 6 3 2 4 4 1 1 2 2 3 3 1 8 7 1 3 5 4 5 4 3 6 4 4 7 10 8 8 7 8 9
6 5 1 1 3 6 6 7 9 4 8 5 5 5 6 6 7 7 4 3 2 2 1 2 3 1 7 8 5 5 7 2 3 4 5 4 7 3 3 3 5 7 6 5 6
1 2 3 2 2 4 5 7 8 8 5 3 6 6 3 8 6 3 2 3 4 5 1 4 3 3 6 7 7 7 7 3 3 3 6 1 5 1 3 3 3 6 7 7 8
Wind_Direction
2 360 356 354 351 348 348 346 346 338 336 335 339 343 354 356 343 40 43 334 339 341 336 308 310 337 356 323 214 117 51 246 253 210 278 357 17 324 307 331 326 349 134 59 5
358 356 355 351 347 346 347 345 343 336 339 346 346 358 6 3 91 68 319 357 355 347 332 351 345 335 355 319 310 133 148 235 222 359 297 285 337 290 335 331 301 335 327 321 343
356 356 354 346 346 343 346 344 341 336 352 1 2 7 7 360 92 323 307 357 345 354 303 298 314 3 331 355 339 326 224 246 298 314 1 315 298 293 293 296 300 307 298 310 325
356 352 349 345 343 341 346 344 342 349 4 11 4 7 343 22 53 282 334 339 335 344 27 16 355 356 327 334 3 332 282 305 286 326 321 305 277 284 217 250 256 259 254 247 275
351 349 348 342 339 342 344 343 346 354 359 4 4 353 346 50 99 341 333 340 340 359 360 355 341 12 1 304 319 245 286 311 308 307 298 293 285 266 290 274 297 290 286 281 288
346 348 345 338 338 342 341 342 341 340 342 0 357 344 34 71 258 330 335 313 349 9 296 238 26 316 273 279 308 303 305 301 298 300 291 288 291 17 278 313 337 14 5 351 0
345 344 339 337 338 342 339 339 334 325 329 344 351 345 56 172 56 328 318 319 338 264 316 38 88 78 322 314 274 268 294 298 292 336 294 25 333 310 337 329 33 10 12 360 2
339 338 335 337 337 341 336 331 323 315 326 327 333 352 150 161 339 352 341 348 343 190 121 130 73 101 207 274 297 303 292 310 343 317 318 1 284 12 2 34 21 9 360 352 352
332 334 333 336 337 338 334 321 304 295 298 314 360 59 334 93 4 312 22 313 311 279 24 101 87 124 349 337 336 275 304 298 308 336 316 303 295 8 9 25 16 6 356 348 343
330 330 331 337 337 338 334 329 317 331 324 264 330 47 25 309 289 311 304 359 289 307 26 45 58 61 2 22 336 309 313 297 308 317 15 312 350 56 28 16 20 6 355 350 347
330 328 329 337 338 339 352 17 17 356 34 69 175 240 309 303 313 325 354 2 360 57 8 304 58 329 309 298 283 296 301 301 300 345 328 283 56 49 25 20 13 4 356 351 344
333 327 326 337 339 346 45 65 75 252 335 316 301 277 262 198 347 329 31 36 18 44 346 9 238 270 292 315 324 318 305 292 293 321 316 82 48 19 23 23 12 0 354 348 342
329 321 330 336 346 44 82 51 306 25 164 290 260 276 295 358 4 310 37 345 39 32 359 172 254 351 333 331 340 329 264 311 301 317 45 131 135 51 2 3 4 3 351 354 353
321 321 336 328 62 332 48 320 25 64 74 295 313 311 324 226 30 293 1 38 28 346 311 247 321 355 327 315 357 311 295 311 302 322 157 154 267 8 349 351 359 354 357 352 346
294 330 338 47 168 54 301 326 70 61 35 250 303 331 347 68 335 8 10 31 159 285 68 281 334 324 341 320 349 251 316 294 282 272 13 146 106 342 357 344 348 351 347 345 343
269 299 360 40 60 125 57 60 66 45 259 354 328 359 14 10 350 330 23 17 75 338 319 256 285 72 287 301 37 323 343 359 273 80 28 297 120 320 1 335 335 339 341 342 342
254 290 2 116 185 140 87 61 35 128 338 305 317 17 102 326 338 39 35 14 36 25 11 339 275 30 352 329 337 358 22 354 354 6 227 280 2 260 329 344 343 334 334 341 341
227 305 42 102 130 113 72 56 94 219 227 124 25 339 44 11 345 350 27 15 26 66 53 39 331 39 335 127 234 352 87 137 263 318 288 354 343 274 186 15 0 349 333 342 344
170 82 91 132 125 100 87 58 212 197 151 164 36 58 322 359 125 17 41 237 315 84 119 20 279 113 62 98 82 331 5 316 220 196 343 251 166 127 333 346 353 350 351 346 346
151 111 109 145 129 103 79 241 200 177 118 73 166 141 215 281 20 34 333 246 156 158 140 213 289 203 130 40 78 81 331 190 358 335 308 308 302 253 336 335 345 343 345 344 346
100 67 141 116 85 58 180 221 211 162 121 132 187 150 210 253 206 272 251 155 208 146 151 128 126 286 88 356 214 10 12 354 283 191 308 316 291 204 288 318 331 329 340 340 340
131 75 159 89 70 67 162 194 182 176 115 182 126 115 171 174 227 263 259 179 208 147 120 143 209 277 198 245 170 123 175 157 353 335 299 245 288 300 245 335 340 335 340 344 346
114 116 323 106 179 214 316 285 226 151 193 180 171 126 102 177 28 225 292 134 162 132 157 175 202 326 35 348 273 96 90 70 254 282 276 299 289 231 8 352 353 345 341 342 350
101 131 319 64 285 120 172 228 222 218 183 167 136 100 90 61 316 279 266 196 175 164 159 129 146 172 205 196 235 334 338 8 107 64 287 229 290 312 328 342 342 344 342 335 340
92 225 188 197 225 128 181 160 151 202 223 168 216 199 163 155 356 239 250 241 153 55 75 100 170 240 272 128 264 242 276 350 112 223 201 289 268 267 302 318 329 318 325 332 347
138 151 314 110 111 138 194 225 195 173 153 229 196 201 162 174 191 212 189 171 188 58 100 38 285 31 293 106 132 280 284 178 212 182 273 285 286 184 247 308 315 328 342 353 360
147 55 100 88 140 145 215 217 204 144 217 203 172 131 169 234 181 201 208 117 139 138 178 104 91 42 270 310 131 348 238 198 269 207 162 24 238 210 309 310 303 325 343 7 13